TIANWANG 1A (TW-1A)

Last updated on Fri Dec 30 2022 00:03:05 GMT+0000 (Coordinated Universal Time)

1 40928U 15051D 22363.79982108 .09201092 21690-5 85924-3 0 9992 2 40928 96.9993 28.5009 0003467 313.2323 142.4476 16.38834510408965

Satellite not in orbit